Port Aransas, TX

12:27 AM CST on February 23, 2017 (GMT -0600)
Port Aransas

Weather History for KRAS - April, 2013

Change the Weather History Date:

Saturday, April 13, 2013

  Actual Average (KNGP) Record (KNGP)
Temperature  
Mean Temperature 68 °F -  
Max Temperature 73 °F 76 °F 90 °F (2009)
Min Temperature 64 °F 63 °F 45 °F (2004)
Cooling Degree Days 4    
Growing Degree Days 18 (Base 50)    
Moisture  
Dew Point 63 °F    
Average Humidity 80    
Maximum Humidity 92    
Minimum Humidity 67    
Precipitation  
Precipitation 0.00 in - - ()
Sea Level Pressure  
Sea Level Pressure 29.86 in    
Wind  
Wind Speed 9 mph (East)    
Max Wind Speed 17 mph    
Max Gust Speed 22 mph    
Visibility 10 miles    
Events      
Averages and records for this station are not official NWS values.
T = Trace of Precipitation, MM = Missing Value Source: NWS Daily Summary

Daily Weather History Graph

Daily Weather History Graph

Search for Another Location

Airport or City:

Trip Planner

Search our weather history database for the weather conditions in past years. The results will help you decide how hot, cold, wet, or windy it might be!

Date:

Astronomy

Apr. 13, 2013 Rise Set
Actual Time 7:05 AM CDT 7:52 PM CDT
Civil Twilight 6:41 AM CDT 8:16 PM CDT
Nautical Twilight 6:13 AM CDT 8:44 PM CDT
Astronomical Twilight 5:44 AM CDT 9:13 PM CDT
Moon 9:11 AM CDT (4/13) 11:02 PM CDT (4/13)
Length of Visible Light 13h 35m
Length of Day
12h 47m
Waxing Crescent, 10% of the Moon is Illuminated
Apr 13
Waxing Crescent
Apr 18
First Quarter
Apr 25
Full
May 2
Last Quarter
May 9
New

Hourly Weather History & Observations

Time (CDT) Temp. Dew Point Humidity Pressure Visibility Wind Dir Wind Speed Gust Speed Precip Events Conditions
12:15 AM 66.4 °F 61.0 °F 83% 29.95 in 10.0 mi SE 8.1 mph - N/A   Clear
12:35 AM 66.4 °F 60.8 °F 82% 29.95 in 10.0 mi SE 9.2 mph - N/A   Clear
12:55 AM 66.4 °F 60.3 °F 81% 29.95 in 10.0 mi SE 10.4 mph - N/A   Clear
1:15 AM 66.2 °F 60.4 °F 82% 29.94 in 10.0 mi SE 8.1 mph - N/A   Clear
1:35 AM 66.2 °F 60.8 °F 83% 29.93 in 10.0 mi SE 5.8 mph - N/A   Clear
1:55 AM 66.2 °F 60.8 °F 83% 29.92 in 10.0 mi SE 8.1 mph - N/A   Clear
2:15 AM 66.2 °F 61.0 °F 83% 29.92 in 10.0 mi SE 6.9 mph - N/A   Clear
2:35 AM 66.2 °F 61.0 °F 83% 29.91 in 10.0 mi SE 5.8 mph - N/A   Clear
2:55 AM 65.8 °F 61.2 °F 85% 29.91 in 10.0 mi ESE 5.8 mph - N/A   Clear
3:15 AM 65.8 °F 61.7 °F 86% 29.91 in 10.0 mi SE 5.8 mph - N/A   Scattered Clouds
3:35 AM 65.8 °F 61.7 °F 86% 29.91 in 10.0 mi ESE 5.8 mph - N/A   Scattered Clouds
3:55 AM 65.7 °F 61.9 °F 88% 29.91 in 10.0 mi ESE 5.8 mph - N/A   Clear
4:15 AM 65.7 °F 62.2 °F 89% 29.90 in 10.0 mi ESE 4.6 mph - N/A   Clear
4:35 AM 65.3 °F 62.2 °F 90% 29.90 in 10.0 mi East 4.6 mph - N/A   Clear
4:55 AM 64.9 °F 62.4 °F 92% 29.90 in 10.0 mi East 4.6 mph - N/A   Clear
5:15 AM 65.5 °F 62.6 °F 90% 29.90 in 10.0 mi East 5.8 mph - N/A   Clear
5:35 AM 65.5 °F 62.6 °F 90% 29.89 in 10.0 mi East 6.9 mph - N/A   Clear
5:55 AM 65.5 °F 62.8 °F 91% 29.89 in 10.0 mi East 6.9 mph - N/A   Clear
6:15 AM 65.7 °F 62.8 °F 90% 29.88 in 10.0 mi East 5.8 mph - N/A   Clear
6:35 AM 65.7 °F 63.0 °F 91% 29.89 in 10.0 mi East 6.9 mph - N/A   Clear
6:55 AM 65.8 °F 63.0 °F 90% 29.89 in 10.0 mi East 8.1 mph - N/A   Mostly Cloudy
7:15 AM 66.2 °F 63.0 °F 89% 29.89 in 10.0 mi East 6.9 mph - N/A   Overcast
7:35 AM 66.7 °F 63.1 °F 88% 29.89 in 10.0 mi East 8.1 mph - N/A   Overcast
7:55 AM 67.1 °F 63.1 °F 87% 29.89 in 10.0 mi East 10.4 mph - N/A   Overcast
8:15 AM 67.3 °F 63.0 °F 86% 29.89 in 10.0 mi East 11.5 mph - N/A   Scattered Clouds
8:35 AM 68.2 °F 63.5 °F 85% 29.90 in 10.0 mi East 9.2 mph - N/A   Clear
8:55 AM 68.9 °F 63.1 °F 82% 29.89 in 10.0 mi East 10.4 mph - N/A   Scattered Clouds
9:15 AM 69.6 °F 63.3 °F 80% 29.89 in 10.0 mi East 9.2 mph - N/A   Scattered Clouds
9:35 AM 70.2 °F 63.3 °F 79% 29.89 in 10.0 mi East 12.7 mph - N/A   Mostly Cloudy
9:55 AM 70.0 °F 63.3 °F 79% 29.90 in 10.0 mi East 11.5 mph - N/A   Scattered Clouds
10:15 AM 71.4 °F 63.1 °F 75% 29.90 in 10.0 mi East 11.5 mph - N/A   Clear
10:35 AM 71.6 °F 63.7 °F 76% 29.90 in 10.0 mi East 13.8 mph - N/A   Clear
10:55 AM 71.4 °F 63.1 °F 75% 29.90 in 10.0 mi East 15.0 mph - N/A   Clear
11:15 AM 72.0 °F 63.1 °F 74% 29.90 in 10.0 mi East 13.8 mph 18.4 mph N/A   Mostly Cloudy
11:35 AM 72.0 °F 63.1 °F 74% 29.90 in 10.0 mi East 11.5 mph - N/A   Overcast
11:55 AM 72.5 °F 63.1 °F 72% 29.90 in 10.0 mi East 11.5 mph 17.3 mph N/A   Overcast
12:15 PM 72.1 °F 63.1 °F 73% 29.89 in 10.0 mi East 12.7 mph 17.3 mph N/A   Overcast
12:35 PM 73.2 °F 63.3 °F 71% 29.89 in 10.0 mi East 12.7 mph 16.1 mph N/A   Overcast
12:55 PM 72.5 °F 63.5 °F 73% 29.88 in 10.0 mi East 12.7 mph - N/A   Overcast
1:15 PM 72.5 °F 63.0 °F 72% 29.87 in 10.0 mi East 15.0 mph - N/A   Mostly Cloudy
1:35 PM 72.9 °F 62.6 °F 70% 29.86 in 10.0 mi East 13.8 mph 20.7 mph N/A   Mostly Cloudy
1:55 PM 72.5 °F 62.2 °F 70% 29.85 in 10.0 mi East 15.0 mph 21.9 mph N/A   Mostly Cloudy
2:15 PM 73.2 °F 62.2 °F 68% 29.85 in 10.0 mi East 13.8 mph 20.7 mph N/A   Mostly Cloudy
2:35 PM 73.0 °F 61.9 °F 68% 29.83 in 10.0 mi East 15.0 mph - N/A   Scattered Clouds
2:55 PM 72.9 °F 61.9 °F 68% 29.83 in 10.0 mi East 15.0 mph 19.6 mph N/A   Clear
3:15 PM 73.0 °F 62.1 °F 68% 29.82 in 10.0 mi East 17.3 mph - N/A   Clear
3:35 PM 72.5 °F 62.1 °F 70% 29.81 in 10.0 mi East 16.1 mph 20.7 mph N/A   Clear
3:55 PM 72.7 °F 61.9 °F 69% 29.80 in 10.0 mi East 15.0 mph 21.9 mph N/A   Clear
4:15 PM 73.2 °F 61.7 °F 67% 29.80 in 10.0 mi East 16.1 mph 20.7 mph N/A   Clear
4:35 PM 72.7 °F 61.7 °F 68% 29.80 in 10.0 mi East 15.0 mph - N/A   Clear
4:55 PM 72.7 °F 61.7 °F 68% 29.80 in 10.0 mi East 13.8 mph - N/A   Clear
5:15 PM 72.0 °F 62.1 °F 71% 29.80 in 10.0 mi East 13.8 mph 18.4 mph N/A   Clear
5:35 PM 72.1 °F 62.2 °F 71% 29.80 in 10.0 mi East 10.4 mph - N/A   Clear
5:55 PM 71.8 °F 62.4 °F 72% 29.80 in 10.0 mi East 10.4 mph - N/A   Clear
6:15 PM 71.1 °F 62.4 °F 74% 29.80 in 10.0 mi East 10.4 mph - N/A   Clear
6:35 PM 70.3 °F 62.2 °F 75% 29.80 in 10.0 mi East 9.2 mph - N/A   Clear
6:55 PM 69.8 °F 62.6 °F 78% 29.78 in 10.0 mi East 12.7 mph - N/A   Clear
7:15 PM 69.1 °F 62.6 °F 80% 29.75 in 10.0 mi East 16.1 mph 19.6 mph N/A   Clear
7:35 PM 68.4 °F 62.6 °F 82% 29.75 in 10.0 mi ESE 15.0 mph 20.7 mph N/A   Clear
7:55 PM 68.0 °F 62.8 °F 83% 29.75 in 10.0 mi East 11.5 mph 19.6 mph N/A   Clear
8:15 PM 68.0 °F 62.8 °F 83% 29.76 in 10.0 mi ESE 9.2 mph - N/A   Clear
8:35 PM 68.0 °F 63.0 °F 84% 29.79 in 10.0 mi East 5.8 mph - N/A   Clear
8:55 PM 67.6 °F 63.0 °F 85% 29.79 in 10.0 mi East 6.9 mph - N/A   Clear
9:15 PM 67.3 °F 63.0 °F 86% 29.80 in 10.0 mi ENE 6.9 mph - N/A   Clear
9:35 PM 67.6 °F 63.1 °F 85% 29.80 in 10.0 mi East 4.6 mph - N/A   Mostly Cloudy
9:55 PM 68.0 °F 63.5 °F 85% 29.80 in 10.0 mi East 5.8 mph - N/A   Overcast
10:15 PM 68.2 °F 63.7 °F 85% 29.81 in 10.0 mi East 5.8 mph - N/A   Overcast
10:35 PM 68.0 °F 63.7 °F 86% 29.80 in 10.0 mi East 6.9 mph - N/A   Overcast
10:55 PM 68.0 °F 63.9 °F 87% 29.80 in 10.0 mi East 8.1 mph - N/A   Overcast
11:15 PM 68.0 °F 63.7 °F 86% 29.80 in 10.0 mi East 6.9 mph - N/A   Overcast
11:35 PM 67.3 °F 63.7 °F 88% 29.80 in 10.0 mi East 5.8 mph - N/A   Scattered Clouds
11:55 PM 67.1 °F 63.7 °F 89% 29.78 in 10.0 mi East 8.1 mph - N/A   Clear